Location: Hopewell Observatory
(38.8698°N, 77.6988°W)
Time: 15:04:49
(UTC-04:00)

Daily predictions for brighter satellites

Satellite Brightness Start Highest point End
(mag) Time Altitude Azimuth Time Altitude Azimuth Time Altitude Azimuth
Cosmos 1954 Rocket 4.1 21:05:16 10° SSW 21:10:28 85° WNW 21:15:41 10° NNE
Cosmos 614 Rocket 4.0 21:07:07 10° S 21:12:16 67° ESE 21:17:26 10° NNE
Cosmos 2297 Rocket 2.4 21:06:51 10° SSW 21:12:29 78° WNW 21:18:11 10° NNE
SL-19 R/B 4.4 21:08:27 10° SSE 21:14:11 88° ENE 21:19:47 10° NNW
Cosmos 1850 Rocket 4.2 21:11:14 10° S 21:16:11 49° ESE 21:21:11 10° NNE
USA 234 3.8 21:10:49 10° ENE 21:16:39 34° SE 21:22:26 10° S
Tiangong 1 1.7 21:16:08 10° W 21:18:54 50° NNW 21:21:38 10° ENE
Cosmos 2221 3.2 21:16:37 10° N 21:20:44 38° ENE 21:24:50 10° SSE
Milstar 3 Cent rocket 3.9 21:19:49 10° WSW 21:25:57 38° S 21:37:23 10° ESE
Okean 3 Rocket 3.9 21:21:55 10° SSE 21:26:15 49° E 21:30:35 10° NNE
ERS-1 Rocket 3.5 21:22:06 10° SE 21:26:49 42° ENE 21:31:34 10° N
ATLAS 5 CENTAUR R/B 1.7 21:24:37 10° SSW 21:29:12 79° ESE 21:34:12 10° NE
Cosmos 1939 Rocket 3.1 21:27:29 10° S 21:31:28 73° W 21:35:31 10° NNW
YAOGAN 6 2.6 21:28:09 10° SSE 21:31:45 71° ENE 21:35:25 10° N
H-2A R/B 3.7 21:29:46 10° ESE 21:33:40 21° ENE 21:37:38 10° NNE
Cosmos 1726 4.1 21:34:15 10° NE 21:36:22 15° ENE 21:38:07 11° ESE
Cosmos 1340 Rocket 3.1 21:33:57 10° SSW 21:37:57 74° W 21:42:01 10° N
Cosmos 1184 Rocket 3.6 21:35:00 10° SSW 21:38:17 55° W 21:41:36 10° N
Cosmos 1818 3.7 21:35:22 10° NNW 21:40:48 65° ENE 21:45:22 14° SE
Cosmos 1741 Rocket 4.0 21:35:42 10° SSW 21:41:01 82° ESE 21:46:21 10° NNE
Cosmos 1766 Rocket 4.3 21:38:13 11° SSE 21:41:49 33° E 21:45:44 10° NNE
Cosmos 2237 Rocket 3.3 21:37:27 10° NW 21:42:40 40° WSW 21:47:52 10° S
NOSS 3-4 (A) 4.1 21:36:16 10° NW 21:43:19 68° WSW 21:50:45 10° SSE
NOSS 3-4 (C) 4.1 21:36:21 10° NW 21:43:25 69° WSW 21:50:49 10° SSE
Terra 4.0 21:42:14 10° ENE 21:43:35 11° ENE 21:44:57 10° NE
USA 245 4.3 21:46:50 17° ESE 21:48:45 28° ENE 21:52:12 10° N
Resurs 01 Rocket 4.3 21:49:35 10° SW 21:52:15 16° W 21:54:56 10° NW
Cosmos 2227 Rocket 4.5 21:51:35 10° WSW 21:56:22 28° WNW 22:01:10 10° N
H-2A R/B 4.4 21:58:05 10° ENE 21:58:59 11° ENE 21:59:54 10° NE
Cosmos 1674 2.6 21:55:59 10° S 21:59:45 89° W 22:03:32 10° N
H-2A ROCKET BODY 3.6 21:59:39 10° S 22:02:42 19° SE 22:09:17 10° E
Atlas Centaur 2 2.7 22:00:34 10° SW 22:02:57 17° SSW 22:03:34 16° S
Helios 1B rocket 4.2 21:59:18 10° N 22:03:04 34° WNW 22:06:48 10° SW
Cosmos 1459 Rocket 4.0 21:56:58 10° N 22:03:17 78° E 22:08:40 14° SSE
Cosmos 2084 4.0 21:59:25 10° SW 22:03:23 55° NW 22:07:11 10° NNE
Cosmos 1908 3.2 22:01:27 10° N 22:05:21 85° WSW 22:08:11 18° S
ARGOS 3.3 22:01:30 18° SSE 22:05:33 62° ENE 22:10:54 10° N
MetOp-A 4.1 22:01:21 15° SSE 22:05:45 81° ENE 22:11:08 10° N
Cosmos 2100 Rocket 4.0 21:59:50 10° N 22:06:11 88° E 22:11:58 13° S
SL-16 R/B 2.5 22:01:26 10° NNW 22:07:02 63° WSW 22:11:44 15° S
Cosmos 1000 Rocket 4.5 22:02:56 10° S 22:09:14 86° E 22:15:33 10° N
Cosmos 2061 Rocket 4.0 22:03:45 10° N 22:10:10 80° E 22:15:28 16° S
KORONAS-FOTON 3.7 22:10:27 14° S 22:13:37 89° E 22:17:25 10° N
Cosmos 2123 Rocket 4.2 22:11:01 17° SSE 22:15:37 53° E 22:21:38 10° NNE
Cosmos 2173 Rocket 4.0 22:11:32 10° N 22:17:42 83° W 22:23:00 15° S
Cosmos 2208 Rocket 4.3 22:12:45 10° NNW 22:18:03 69° WSW 22:21:57 19° S
SPOT 1/Viking Rocket 3.6 22:25:32 27° SSE 22:28:21 67° ENE 22:33:28 10° N
Cosmos 220 Rocket 4.0 22:30:12 26° S 22:32:30 61° ESE 22:36:51 10° NNE
Cosmos 1242 Rocket 3.8 22:29:07 10° NNW 22:32:36 38° W 22:34:53 18° SSW
Cosmos 1763 Rocket 4.1 22:28:07 10° N 22:32:58 41° ENE 22:35:00 28° ESE
Cosmos 1802 Rocket 4.3 22:33:15 10° NNW 22:39:19 64° W 22:43:58 18° S
Cosmos 1725 Rocket 3.9 22:33:55 10° N 22:40:12 75° E 22:43:35 29° SSE
SPOT 5 3.1 22:37:41 25° S 22:40:26 67° WSW 22:45:28 10° NNW
Cosmos 2058 3.6 22:41:53 35° ESE 22:42:19 36° E 22:46:11 10° NNE
Cosmos 1408 Rocket 4.4 22:39:20 12° SSW 22:43:04 48° W 22:47:15 10° N
Cosmos 371 Rocket 3.4 22:39:16 10° NNW 22:44:04 64° ENE 22:45:44 39° SE
Lacrosse 5 1.9 22:39:33 10° NW 22:44:37 70° NE 22:46:42 35° ESE
deb Chang Zheng 4 4.4 22:45:38 10° NNE 22:49:35 33° E 22:49:38 33° E
OAO 1 Rocket 4.5 22:46:18 10° WSW 22:51:33 58° S 22:53:31 36° ESE
CZ-4C R/B 4.1 22:56:27 12° E 22:56:27 12° E 22:57:24 10° ENE
Tiangong 1 2.2 22:52:10 10° WNW 22:54:46 34° N 22:55:09 32° NNE
Abrixas rocket 3.5 22:53:06 10° NW 22:56:06 33° NNE 22:56:48 30° NE
RESURS DK-1 2.5 22:53:02 10° NNW 22:57:11 68° WSW 22:58:06 50° S
USA 234 3.7 22:53:23 10° NE 22:59:51 65° NW 23:06:17 10° WSW
Cosmos 468 Rocket 4.4 22:56:50 10° NNW 23:01:50 55° WSW 23:03:53 33° SSW
EO 1 Delta rocket 4.2 22:59:49 30° SSW 23:01:57 57° W 23:06:30 10° NNW
Cosmos 1500 Rocket 3.5 23:01:39 44° S 23:03:03 88° WNW 23:07:32 10° N
Cosmos 2151 2.9 23:02:31 56° SSE 23:03:21 78° E 23:07:40 10° N
SL-14 R/B 4.1 23:02:08 28° SW 23:03:52 49° W 23:07:43 10° N
Cosmos 1626 2.4 23:05:11 52° ENE 23:05:11 52° ENE 23:08:32 10° NNE
Landsat 7 3.8 23:04:12 44° S 23:05:42 78° WSW 23:10:29 10° NNW
Cosmos 2263 Rocket 2.0 23:04:26 36° S 23:06:44 71° ESE 23:12:18 10° NNE
Cosmos 1503 Rocket 4.1 23:08:10 47° SE 23:08:58 52° ESE 23:14:00 10° NNE
Cosmos 1300 3.6 23:05:49 10° NNW 23:09:28 43° W 23:10:18 37° SW
Meteor 2-10 4.4 23:04:00 10° NNW 23:09:34 66° W 23:12:05 34° SSW
Cosmos 1726 3.6 23:08:32 10° NNW 23:11:44 29° W 23:12:45 25° WSW
H-2A R/B 2.8 23:10:15 29° SSW 23:12:40 49° W 23:17:55 10° NNW
CARTOSAT-1 3.4 23:12:30 63° SSE 23:13:10 90° ENE 23:17:31 10° NNW
Terra 1.8 23:19:38 55° S 23:20:38 79° WSW 23:25:25 10° NNW
Cosmos 1805 Rocket 4.2 23:22:29 41° ENE 23:22:29 41° ENE 23:26:12 10° NNE
CZ-4 R/B 3.7 23:17:41 10° NNE 23:22:33 69° ESE 23:23:08 62° SSE
CZ-4B R/B 3.5 23:26:18 10° NNE 23:31:35 69° ESE 23:32:19 60° SSE
SL-19 R/B 4.2 23:26:52 10° NNE 23:32:14 78° WNW 23:34:17 40° SSW
Cosmos 1515 Rocket 4.5 23:28:24 10° NNW 23:32:26 38° W 23:33:17 35° WSW
Cosmos 2233 Rocket 4.1 23:27:18 10° NNW 23:33:26 67° W 23:35:40 40° SSW
H-2A R/B 2.1 23:34:10 67° SW 23:34:26 69° WSW 23:38:42 10° NNW
Cosmos 540 Rocket 3.6 23:30:20 10° N 23:35:25 56° ENE 23:36:05 52° E
Cosmos 1151 Rocket 3.7 23:32:55 10° NNW 23:37:08 46° W 23:37:42 43° WSW
Cosmos 1844 Rocket 3.9 23:41:57 26° E 23:41:57 26° E 23:45:40 10° NE
IGS 5A 4.2 23:41:12 43° WSW 23:41:24 43° W 23:45:23 10° NNW
Delta 2 Rocket 4.3 23:37:09 10° WSW 23:41:58 52° SSW 23:41:58 52° SSW
Cosmos 1455 2.5 23:39:22 10° N 23:42:40 64° N 23:42:40 64° N
Cosmos 1869 4.3 23:41:04 10° N 23:44:06 38° NE 23:44:06 38° NE
Spot 4 3.7 23:47:15 75° SSW 23:47:39 83° W 23:52:32 10° NNW
Cosmos 304 Rocket 3.6 23:42:56 10° NNW 23:47:45 86° ENE 23:47:54 83° SE
ERBS 4.2 23:45:24 10° NW 23:47:11 27° WNW 23:47:11 27° WNW
CZ-4C R/B 3.6 23:49:57 73° NE 23:49:57 73° NE 23:54:03 10° N
Cosmos 1943 3.6 23:44:55 10° NNW 23:50:22 50° WSW 23:51:21 45° SW
Cosmos 1354 Rocket 4.4 23:51:22 41° SW 23:52:59 60° WNW 23:58:10 10° N
